DELTA 1 DEB, 10835

Orbit data source: Space-Track

DELTA 1 DEB, 10835 is space debris in SSO originally from a launch on Thu, 29 Jul 1976 UTC launched from the Air Force Western Test Range (AFWTR). Debris objects in space refer to the collection of defunct objects orbiting the Earth. Examples of debris include non-operational satellites, rocket bodies, and fragments generated from explosions, collisions, or faulty payload assembly.

Loading next visibility...
Identifier
10835, 1976-077CF
Orbit
SSO
Country
Flag of USUS
Related business
Manufacturer
Unknown
Mission
Spacecraft
Bus & Motor
Unknown
Mass
Unknown
Launch date (UTC)
1976-07-29 (49 years ago)
Launch vehicle
Unknown
Launch site
Air Force Western Test Range (AFWTR)
Object type
Payload
Rocket body
Debris
Shape & HBR
Unknown shape, 0.1 m
Radar Cross Section
Small (<0.1 m²)

Expand to show TLE details & history
Last TLE update: 1 day ago

TLE from 1 day ago
0 DELTA 1 DEB
1 10835U 76077CF  25342.66787741  .00016953  00000-0  16988-1 0  9993
2 10835 102.0351  38.5289 0063505 269.0443 221.2394 13.76847437338729
Epoch: 2025-12-08T16:01Z
TLE epoch observation values (Epoch: 2025-12-08T16:01:44.608Z)
Latitude
48.80386°
Longitude
-85.54781°
Altitude
1,017.839 km
Speed
7.33 km/s
True Right ascension
15h 30m 12s
True Declination
48° 38' 22"
Sunlit
Object was in daylight at epoch
Visualization orbit readout
Latitude
Unknown
Longitude
Unknown
Altitude
Unknown
Speed
Unknown
Apparent Right ascension
Unknown
Apparent Declination
Unknown
Sunlit
N/A
Visualization observer readout
Local Sidereal Time
19:09:07
Azimuth
Unknown
Elevation
Unknown
Doppler factor
Unknown
Orbital elements
Apogee altitude
1,019.171 km
Perigee altitude
925.811 km
Semi-major axis
7,350.628 km
Eccentricity
0.00635
Inclination
102.0351°
RAAN
38.5289°
Arg. of periapsis
269.0443°
True anomaly
220.76254°
Mean anomaly
221.2394°
Eccentric anomaly
221.00069°
Mean motion
3.44395 °/min
Orbital period
104.53 mins
BSTAR
0.016988
Loading maneuver chart data...
Computing Atmospheric mass density...
Loading historical data...
Loading historical data...
Loading historical data...
Loading historical data...
Loading historical data...
Loading historical data...
Loading historical data...

Documentation

Showing up to 5 results
|